星链-4327 (STARLINK-4327 )

导读

STARLINK-4327是美国SpaceX公司星链(Starlink)星座中的一颗卫星,于2022年7月11日发射入轨。星链项目计划在近地轨道部署数万颗卫星,旨在为全球偏远、基础设施匮乏地区提供高速低延迟的宽带互联网服务,目前已在全球六十多个国家和地区落地商用,推动了全球互联网覆盖的普及。

基本信息
目录编号:
53079
目录名称:
STARLINK-4327
国际标识:
2022-077AN
轨道中心:
EARTH
卫星名称:
星链-4327
卫星全名:
星链-4327 (STARLINK-4327 )
卫星状态:
在轨 (已飞行1516 天)
发射日期:
2022-07-11 UTC
国别 :
美国 (US)
星等 :
--
轨道信息
数据来源 国际轨道数据
星历时间: 2026-09-04T16:00:02+0800
8小时前
查看轨道信息
半长轴: 6877.743km
偏心率: 0.0002607
轨道倾角: 97.286°
近地点辐角 96.560°
升交点赤经 63.317°
平近点角 95.117°
近地点: 497.812km
远地点: 501.4km
周期: 94.608分钟
每日圈数: 15.220676
详细信息
固有亮度:
5
最大亮度:
2.5
卫星平台:
Starlink v1.5
覆盖范围:
全球
运营商:
太空探索技术公司
运营商所在国:
美国
制造商(研发单位):
太空探索技术公司
制造商所在国:
美国
使用方式:
暂无
卫星简介
星链(Starlink)计划是由太空探索技术公司(SpaceX)提出的一个巨型低轨卫星互联网星座项目,计划在2019年至2024年间在太空搭建由约1.2万颗卫星组成的“星链”网络,其中1584颗将部署在地球上空550千米处的近地轨道,并从2020年开始工作。该卫星仍在工作。
2D轨道图
3D轨道图
轨道高度分析图
轨道倾角分析图
轨道综合分析图
查看轨道综合分析图
交会数据列表
事件ID 空间交会对象 最接近时刻(TCA) 交会距离 交会风险概率(CRP) 交会风险指数(CRI) 操作
CDM_260905-201300-982405-307921
2026-09-05T
20:13:47+0000
1.690 km
极远距离
4.714466E-6 低风险 0.48